Regional Weather Roundup
Issued by NWS Wakefield, VA

Home | Current Version | Previous Version | Text Only | Print | Product List | Glossary On
Versions: 1 2 3 4 5 6 7 8 9 10 11 12 13 14 15 16 17 18 19 20 21 22 23 24 25 26 27
000
ASUS41 KAKQ 271315
RWRAKQ

REGIONAL WEATHER ROUNDUP
NATIONAL WEATHER SERVICE WAKEFIELD VA
900 AM EDT WED JUL 27 2016

Note: "fair" indicates few or no clouds below 12,000 feet with no
significant weather and/or obstructions to visibility. * = Denotes
station may not report precipitation (e.g., rain,snow,etc.),
thunder or fog.

VAZ042-051-052>054-056-271400-
NORTHERN VIRGINIA

CITY           SKY/WX    TMP DP  RH WIND       PRES   REMARKS
WASH NATIONAL  PTSUNNY   85  68  56 N7        29.96R
DULLES         PTSUNNY   82  68  62 NW8       29.98R
FORT BELVOIR   FAIR      87  69  56 NW5       29.96R
QUANTICO       FAIR      86  70  58 N5        29.96S
FREDERICKSBRG* FAIR      81  74  78 CALM      29.96S
STAFFORD*      FAIR      83  71  67 N3        30.01R
WARRENTON      FAIR      82  70  65 CALM      29.98R
CULPEPER*      FAIR      81  75  83 CALM      29.99R
MANASSAS*      SUNNY     84  70  61 N5        29.97
LEESBURG*      PTSUNNY   81  72  74 NW3       30.00R
WINCHESTER     FAIR      79  66  65 N3        30.01R
FRONT ROYAL*   FAIR      75  72  88 CALM      30.01R
LURAY*         CLOUDY   N/A N/A N/A CALM      30.02S FOG
$$

VAZ048-049-060>072-079>083-271400-
CENTRAL AND SOUTH CENTRAL VIRGINIA

CITY           SKY/WX    TMP DP  RH WIND       PRES   REMARKS
RICHMOND       FAIR      79  74  84 W5        29.97R
CHESTERFIELD*  FAIR      81  64  57 W6        29.99R
PETERSBURG*    FAIR      81  76  83 NW3       29.99R
HANOVER        FAIR      80  73  79 W3        29.99R
TAPPAHANNOCK*  FAIR      80  78  93 CALM      29.97R
QUINTON*       FAIR      77  75  91 CALM      29.96S
CHARLOTTSVILLE FAIR      84  72  67 CALM      29.99S
GORDONSVILLE*  FAIR      82  74  78 NE3       29.98S
ORANGE*          N/A     82  73  74 CALM      30.01R
LOUISA*        FAIR      84  75  74 N5        29.98S
BUMPASS*       FAIR      78  75  90 CALM      29.98R
FARMVILLE*     FAIR      79  78  94 CALM      29.98S
CREWE*         FAIR      80  78  93 CALM      29.99R
FORT PICKETT*  FAIR      78  77  97 W3        29.99S
CHASE CITY*    FAIR      77  75  94 NW3       30.01R
CLARKSVILLE*   FAIR      77  77 100 NW3       29.99R
SOUTH HILL*    FAIR      78  75  91 CALM      30.05R
LAWRENCEVILLE* PTSUNNY   77  75  94 SW3       29.99R
EMPORIA*       FAIR      79  73  83 SW3       29.99S
$$

VAZ088>098-271400-
SOUTHEAST VIRGINIA

CITY           SKY/WX    TMP DP  RH WIND       PRES   REMARKS
NORFOLK        FAIR      84  76  76 CALM      29.95S
VIRGINIA BEACH PTSUNNY   88  75  65 NW3       29.95S HX  97
NORFOLK NAVAL  FAIR      82  76  81 W6        29.97S
WEST POINT*    FAIR      80  75  84 CALM      29.98R
SALUDA*        FAIR      80  77  91 CALM      29.96R
NEWPORT NEWS   FAIR      82  74  76 VRB5      29.96R
LANGLEY AFB    MOSUNNY   82  77  83 SW3       29.95S
FORT EUSTIS    FAIR      84  76  76 W3        29.95R
WILLIAMSBURG*  FAIR      79  77  94 N3        29.98R
HR EXEC AP*    FAIR      81  75  83 NW5       29.98S
FRANKLIN*      FAIR      78  74  88 CALM      29.98S
US460-WAKEFLD  FAIR      80  74  81 W6        29.98R
$$

VAZ020-022-025-037-045-271400-
WEST CENTRAL AND SOUTHWEST VIRGINIA

CITY           SKY/WX    TMP DP  RH WIND       PRES   REMARKS
STAUNTON*      FOG       71  71 100 CALM      30.06S VSB 1/2
WAYNESBORO*    FAIR      76  70  83 W5        30.05S
HOT SPRINGS VA FAIR      70  68  94 W8        30.17R
LYNCHBURG      FAIR      77  74  90 CALM      30.03R
DANVILLE       FAIR      79  72  79 CALM      30.01R
SOUTH BOSTON*  FAIR      79  77  95 CALM      30.00S
MARTINSVILLE   FAIR      80  72  77 CALM      30.05S
ROANOKE        FAIR      81  72  74 VRB5      30.06R
BLACKSBURG     FAIR      77  73  86 W3        30.13S
DUBLIN*        FAIR      79  73  82 SW3       30.12S
MARION*        CLOUDY    75  70  86 W7        30.17R
HILLSVILLE*    FAIR      75  71  89 CALM      30.13S
RICHLANDS*     FAIR      76  73  88 CALM      30.16S
WISE*          FAIR      77  70  78 SW3       30.16S
ABINGDON*      PTSUNNY   75  73  91 CALM      30.13S
$$

MDZ021>025-VAZ099-100-271400-
SOUTHERN MARYLAND AND THE DELMARVA PENINSULA

CITY           SKY/WX    TMP DP  RH WIND       PRES   REMARKS
PATUXENT RIVER PTSUNNY   84  73  69 CALM      29.95R
BAY BRIDGE APT MOSUNNY   82  73  74 NW5       29.94S
LEONARDTOWN    CLOUDY    81  73  78 MISG        N/A
DOVER          LGT RAIN  84  84 100 E2        29.93R HX 104
GEORGETOWN     SUNNY     83  75  77 W5        29.94S
EASTON         NOT AVBL
CAMBRIDGE      SUNNY     82  73  74 CALM      29.94S
SALISBURY      PTSUNNY   79  77  94 S3        29.94S
OCEAN CITY     LGT RAIN  80  77  90 CALM      29.94F
WALLOPS ISLAND PTSUNNY   84  79  85 N3        29.95R HX  96
ACCOMACK*      FAIR      82  73  74 CALM      29.94S
$$

NCZ012>017-030>032-271400-
NORTH CENTRAL AND EASTERN NORTH CAROLINA

CITY           SKY/WX    TMP DP  RH WIND       PRES   REMARKS
ROANOKE RAPIDS FAIR      79  73  83 CALM      29.98S
RALEIGH        MOSUNNY   81  77  88 W6        30.00R
ELIZABETH CITY MOSUNNY   82  76  81 W5        29.97S
AHOSKIE*       SUNNY     79  74  84 CALM      29.98S
EDENTON*       PTSUNNY   85  75  73 W3        29.99R
CURRITUCK*     MOSUNNY   81  77  89 SW3       29.97S
KILL DEVIL HLS PTSUNNY   84  77  79 CALM      29.96S
MANTEO           N/A     81  79  95 W6        29.97S
CAPE HATTERAS  CLOUDY    83  77  82 SW9       29.98S
TARBORO*       FAIR      82  76  83 CALM      29.98F
GOLDSBORO      MOSUNNY   85  78  79 W10       29.97R HX  96
WASHINGTON     MOSUNNY   83  76  81 CALM      29.98S
GREENVILLE     SUNNY     84  79  84 N3        29.99S HX  96
NEW BERN       MOSUNNY   84  75  74 W7        29.99R
WILMINGTON     SUNNY     85  74  69 W10       30.00R
$$

VAZ048-271400-
ELSEWHERE

CITY           SKY/WX    TMP DP  RH WIND       PRES   REMARKS
HARRISBURG PA  MOSUNNY   81  65  58 CALM      29.98S
BALTIMORE      CLOUDY    83  67  58 N5        29.95R
ANNAPOLIS      SUNNY     84  72  67 N5        29.94R
ANDREWS AFB    FAIR      84  68  58 N2        29.95S
PHILADELPHIA   MOSUNNY   82  63  52 NE8G20    29.97R
GREENSBORO     CLOUDY    82  76  81 CALM      30.02R
ROCKY MOUNT    SUNNY     84  79  85 N3        29.98R HX  96
$$

VAZ100-271400-
MARINE

STATION/POSITION TIME  TEMP    WIND        PRES    WAVE   SWELL
                       AIR SEA DIR/SP/G            HT/PER HT/PER
                 (UTC) (F)     (DEG/KT/KT) (MB)    (FT/S) (FT/S)
BRANDYWINE LGT   1200   77     180/  6/  7   N/A
CAPE MAY NJ      1200   78 73  100/  4/  6 1013.0F
LEWES DE         1200   78 74  120/  2/  3 1013.6R
OCEAN-CITY-INLET 1200   76 72  230/  6/  6 1014.5R
WACHAPREAGUE VA  1200   79 87  310/  1/  3 1013.7R
THOMAS POINT MD  1300   82 84  360/  6/  7 1015.2S
GOOSES REEF MD   1200   84 85  340/  6/  8 1014.7R   1
COVE POINT MD    1200   81     340/  5/  7 1014.3R
SOLOMONS ISLAND  1200   82 85  320/  3/  4   N/A
BISHOPS HEAD MD  1200   82 86   80/  4/  6 1014.1R
PINEY POINT MD   1200          260/  3/  4   N/A
POTOMAC MD       1200   83 86  320/  2/  2 1012.8R   1
CAMBRIDGE MD     1200   83 87   90/  3/  4 1012.9R
LEWISETTA VA     1200   80 87  270/  2/  3 1013.7R
RAPPAHANNOCK LGT 1200           10/  4/  5 1014.6R
STINGRAY PT      1200   81 85  260/  4/  6 1014.5R   0
YORK RVR RNG VA  1200   80     270/  4/  5 1013.9R
YORKTOWN VA      1200   79 84  250/  4/  5 1014.0R
JAMESTOWN VA     1200   80 88  260/  2/  4   N/A     0
DOMINION TERM VA 1200   78     290/  4/  5 1014.4R
KIPTOPEKE VA     1200      80  310/  5/  6   N/A
CHES BAY BRIDGE  1200   80 81  260/  6/  7 1014.1R
CAPE HENRY VA    1200   80     280/  4/  6   N/A
WILLOUBY STN VA  1200   79     260/  6/  7   N/A
CAPE HENRY BUOY  1212      71                N/A     1/ 5
1ST LANDING BUOY 1200   80 79  300/  4/  6 1014.0R
CAPE CHARLES BUO 1226      74                N/A     1/ 5
OFFSHORE WE BUOY 1221      80                N/A     2/ 6
64NM E OF VA BCH 1250   80 80  130/  4/  4 1014.3R   3/ 6   2/ 6
DUCK PIER NC     1200   81 63  230/  5/  6 1013.9R
44100 DUCK FRF   1205      77                N/A     2/ 6
44056 DUCK FRF   1211      69                N/A     1/ 5
OREGON INLET NC  1200   82 85  240/  7/  8 1014.6R
HATTERAS NC      1200   81 83  230/  6/  8 1014.8R
DIAMOND SHLS NC  1250   84 84  260/ 14/ 16 1015.1R   4/ 5   2/ 9
CAPE LOOKOUT NC  1200   83     250/ 15/ 17 1015.0R
$$




USA.gov is the U.S. government's official web portal to all federal, state and local government web resources and services.